Wind_Speed
30 32 33 34 34 33 30 28 26 24 23 22 21 21 21 21 21 21 22 23 24 25 26 26 25 25 24 24 23 22 21 21 20 20 20 20 19 18 17 17 17 17 16 16 17 16 15 15 14 14 14 13 13 12 11 9 9 10 11 12 12 15 17 17 18 20 21 20 19 19 18 18 20 20 19 18 18 16 13 11 10 11 12 14 15 16 17 17
31 33 35 35 35 33 30 27 25 24 22 21 20 19 19 19 19 20 20 21 22 23 25 25 25 24 24 24 23 22 21 20 20 20 20 20 19 19 18 17 17 17 17 16 16 16 16 15 15 15 15 14 13 12 10 8 9 12 13 14 15 17 18 18 18 19 20 21 20 20 19 18 19 18 16 14 14 14 13 12 12 13 14 15 16 17 17 18
32 34 36 36 36 33 29 26 24 22 21 20 19 18 17 17 17 18 19 19 20 21 23 24 25 24 23 23 23 22 21 20 20 20 20 20 19 19 19 18 17 17 17 17 16 16 16 16 16 16 17 16 14 12 9 8 10 12 14 15 17 19 19 19 19 19 20 20 21 21 20 21 20 17 15 13 13 13 13 13 13 14 14 15 17 17 17 18
33 36 37 36 35 33 29 25 23 21 20 18 17 16 16 15 15 16 17 18 18 19 21 22 24 24 23 22 22 22 21 21 20 20 19 19 19 19 19 19 18 18 18 17 17 17 17 17 17 17 17 17 16 14 11 9 11 13 15 17 19 20 21 20 19 19 19 20 21 21 21 22 20 17 15 14 15 15 14 14 14 14 15 15 16 17 17 18
34 36 37 36 35 32 28 24 22 20 18 16 15 15 14 13 14 14 15 16 17 17 18 20 22 23 22 22 22 22 22 21 20 19 19 18 18 18 18 19 19 18 18 18 17 17 18 18 18 18 18 18 17 16 14 13 13 15 17 18 19 20 20 20 19 19 19 20 21 21 20 21 19 16 15 15 16 16 16 15 15 15 15 16 16 16 18 18
34 37 37 36 34 31 27 24 21 18 16 14 13 12 12 12 12 12 12 13 14 15 16 18 20 21 21 21 21 21 22 21 20 19 18 18 17 17 18 18 18 18 18 18 18 18 18 18 18 18 18 18 18 18 17 16 15 17 19 19 20 20 19 20 19 19 19 19 21 22 21 19 18 15 14 15 16 16 16 16 16 15 15 15 16 17 18 18
34 36 37 35 33 29 26 23 20 16 14 12 11 11 10 10 10 10 10 10 12 13 14 16 18 19 20 20 20 20 21 21 20 19 18 18 17 17 17 18 18 18 19 18 18 18 18 18 18 18 18 19 20 20 19 17 17 18 19 19 20 20 20 20 20 19 18 19 22 22 20 19 18 16 14 13 14 16 17 16 15 15 15 16 16 17 17 17
35 36 36 35 31 28 25 22 19 14 11 10 10 9 8 8 8 8 7 7 8 10 11 13 15 17 18 18 18 19 20 20 20 19 18 18 17 17 17 18 18 18 18 18 18 19 18 18 17 18 18 19 20 20 19 18 18 19 20 20 21 21 21 20 19 18 18 19 21 21 21 20 18 17 16 14 13 14 16 16 15 15 15 14 15 15 16 17
36 36 36 34 30 27 25 22 18 14 11 9 8 8 7 7 7 6 6 5 5 7 8 10 12 14 15 16 16 17 18 19 19 18 17 17 17 16 16 17 17 17 17 18 19 19 17 16 16 17 18 18 19 19 18 16 17 19 20 21 20 20 21 20 18 17 17 18 19 21 21 20 19 18 17 16 15 14 14 14 13 12 12 12 13 15 16 17
37 38 38 35 30 27 26 23 20 15 11 9 7 6 6 6 5 5 4 4 3 4 6 8 10 13 14 14 15 16 17 18 18 18 16 16 16 15 15 16 16 17 17 18 18 17 16 15 15 16 17 18 18 18 16 15 16 18 20 20 19 20 22 20 18 17 17 18 18 20 22 20 19 19 19 19 18 16 14 13 12 11 12 12 14 15 16 16
39 40 39 37 31 28 27 24 21 17 14 10 7 6 5 4 4 4 3 3 2 2 4 7 10 12 13 14 15 15 16 17 17 17 16 15 15 15 14 14 14 15 15 15 15 14 14 13 13 15 16 17 18 17 15 15 15 17 18 18 18 20 21 20 18 18 18 19 19 21 23 23 20 20 21 21 19 17 15 13 11 11 12 13 14 15 15 14
40 41 41 39 33 30 28 26 23 20 16 12 9 7 5 3 3 3 3 2 2 1 3 7 10 12 14 14 14 14 15 16 16 17 16 15 14 14 13 12 12 12 12 12 11 11 11 11 12 13 14 15 16 15 14 14 15 16 15 15 17 18 20 19 18 19 18 20 21 22 24 23 21 21 20 19 18 17 15 12 11 11 11 12 13 13 14 14
41 42 42 40 35 31 29 28 26 23 19 14 10 8 6 3 1 2 2 2 2 1 2 7 10 11 12 13 13 12 13 15 16 16 15 15 14 14 13 12 12 11 10 9 10 11 12 12 13 13 13 15 14 13 12 13 14 14 13 13 14 15 18 19 20 20 20 22 21 23 25 23 22 20 16 16 16 16 14 13 12 11 10 10 11 12 14 15
41 42 42 41 37 33 30 29 27 26 22 17 13 10 8 6 4 2 1 2 2 2 2 6 9 10 10 10 10 10 11 13 15 15 15 14 13 13 13 13 12 11 9 10 11 12 13 14 15 14 15 16 15 15 14 13 13 12 11 11 12 14 17 19 22 22 23 24 23 26 26 22 22 18 15 15 14 13 14 13 13 13 12 11 11 12 14 16
39 41 42 41 39 35 32 30 29 28 25 21 17 14 12 9 7 6 5 4 4 4 4 5 8 9 9 8 8 9 10 12 14 14 14 13 12 11 11 11 11 11 11 11 11 12 12 13 14 14 15 15 16 16 16 15 14 13 12 11 12 14 17 20 23 23 24 26 26 29 26 21 22 18 15 14 12 12 12 12 12 13 13 13 12 11 13 15
38 40 41 41 40 37 34 32 31 29 26 23 20 18 16 13 10 10 9 8 8 8 7 7 7 7 7 7 7 7 9 10 12 13 14 13 12 11 11 11 11 11 11 11 11 11 11 12 13 13 14 14 15 16 16 15 14 14 14 14 14 16 19 20 22 22 24 27 29 29 24 21 22 19 16 14 12 13 12 11 11 11 12 13 12 12 13 14
36 38 40 40 40 38 35 33 32 31 28 24 22 20 18 16 12 11 11 12 12 11 10 8 8 7 7 7 7 7 7 8 10 12 13 14 13 12 11 11 11 11 12 12 12 12 11 12 13 14 14 15 16 16 16 15 14 15 16 17 19 19 20 21 22 22 24 27 29 30 25 21 22 21 19 16 14 15 13 12 11 10 10 10 10 12 13 14
34 36 38 39 40 39 37 34 32 32 29 26 24 22 20 18 15 12 12 13 14 14 12 10 9 7 7 7 7 7 7 8 10 11 13 13 13 12 11 10 11 12 13 13 13 12 12 13 14 16 17 17 17 17 16 14 16 19 20 21 22 21 21 22 23 24 26 27 29 30 26 23 23 23 21 17 15 16 15 14 12 11 10 9 9 10 11 11
32 34 36 38 39 39 38 36 33 32 30 28 26 25 23 21 18 15 13 13 13 13 12 11 10 8 7 7 8 8 7 8 10 11 12 12 12 12 11 11 11 12 13 13 13 13 13 15 17 18 19 19 19 19 18 18 21 23 23 23 23 23 22 23 23 25 27 27 27 28 27 24 25 24 23 20 17 18 17 14 13 12 10 9 9 9 9 8
30 32 34 36 37 39 39 37 35 33 31 29 27 26 25 23 20 17 15 14 14 12 11 10 10 8 8 7 7 8 7 7 9 11 11 11 12 12 12 12 13 13 13 13 14 15 16 17 17 18 19 19 20 21 21 23 24 24 24 24 24 23 22 22 23 25 27 27 25 27 27 26 26 24 23 22 20 20 19 15 14 13 12 10 10 9 9 7
28 29 32 34 35 37 38 38 36 34 32 30 28 27 26 25 23 20 17 16 15 13 11 11 9 8 7 7 7 7 6 7 9 11 11 11 12 12 13 13 13 14 14 15 16 16 17 17 17 17 18 19 21 22 23 25 25 26 27 26 25 23 21 22 24 26 28 28 26 28 29 28 27 25 23 24 23 22 21 18 16 15 13 11 11 11 9 7
25 27 29 32 33 35 37 37 37 36 34 32 30 28 27 25 24 22 20 18 17 15 13 12 11 9 7 7 7 6 5 5 7 9 10 10 11 11 12 13 13 14 15 16 16 17 18 18 18 18 19 20 21 22 24 25 26 27 28 28 26 23 22 24 26 28 30 30 29 31 31 29 29 27 26 26 25 24 24 22 19 17 14 11 11 12 10 8
23 25 27 29 31 33 34 36 36 36 35 33 32 30 28 26 24 23 21 20 20 18 16 15 14 11 8 7 6 5 4 4 6 7 8 9 9 10 11 13 14 14 16 16 17 19 20 20 20 20 19 20 22 23 24 25 26 27 28 29 26 25 25 26 28 30 31 32 32 32 32 29 28 28 28 28 27 27 27 25 23 20 16 13 13 13 10 8
21 22 24 26 28 30 32 33 34 35 35 34 33 31 29 28 26 24 22 21 21 20 19 19 17 14 11 8 6 4 3 3 5 6 7 8 9 11 13 14 15 16 17 17 18 20 21 20 21 21 20 21 22 23 24 25 27 28 29 29 27 26 27 28 30 32 33 34 34 34 32 30 29 30 28 28 29 29 28 27 25 20 16 15 13 12 10 8
19 20 21 23 25 28 30 31 32 33 34 34 33 32 31 29 28 27 24 23 22 22 21 20 19 16 14 11 9 7 4 2 1 4 6 8 10 11 13 15 16 16 17 16 18 21 21 20 21 21 21 21 22 23 25 26 27 28 29 29 29 28 28 29 32 34 35 35 35 34 32 31 30 30 30 29 30 29 29 29 27 21 18 16 14 12 10 10
17 18 19 20 22 24 27 29 30 31 32 32 32 32 31 30 29 27 26 25 24 22 21 20 18 17 15 13 12 10 7 7 5 2 1 4 7 8 10 12 13 14 15 15 17 20 21 20 21 21 22 22 23 24 25 26 27 28 29 30 30 30 30 30 32 34 36 36 35 34 32 32 30 29 30 30 30 30 30 31 29 24 21 18 15 12 11 12
16 17 17 18 19 21 23 26 27 28 29 30 30 30 30 29 28 26 24 25 25 23 21 19 18 17 15 14 13 12 10 9 8 6 4 2 2 4 5 7 9 10 11 12 16 19 21 22 22 22 23 24 25 25 26 27 27 27 29 29 30 30 30 30 31 33 35 36 37 35 34 34 32 31 32 32 32 31 31 31 29 25 23 20 17 15 14 15
14 15 16 16 17 18 20 22 24 26 27 28 28 28 28 27 27 25 24 25 25 23 21 20 20 18 16 15 15 13 12 11 9 8 7 6 5 5 5 6 8 9 9 10 14 18 21 23 24 24 24 25 26 27 28 28 28 28 29 29 29 30 30 30 30 30 32 33 35 35 35 35 34 34 34 35 34 32 30 28 28 26 24 21 19 18 18 19
14 14 15 15 15 15 17 18 21 23 24 25 26 27 27 26 26 25 24 24 24 23 22 21 21 20 19 18 17 16 15 14 12 11 10 8 8 8 8 8 10 11 11 11 13 17 20 22 23 23 23 24 26 28 28 28 28 28 28 29 30 31 31 31 31 30 31 31 31 31 31 32 33 33 33 34 34 33 30 29 28 28 26 24 21 20 20 21
14 14 14 14 14 14 14 15 17 19 21 22 23 24 24 25 24 23 23 23 23 23 22 22 21 20 20 20 19 19 18 17 15 14 12 11 11 11 10 11 12 13 14 14 16 18 21 22 23 23 23 24 26 28 29 29 28 29 29 29 30 31 31 31 31 31 31 30 28 27 28 29 30 30 30 32 34 34 33 31 31 31 30 28 26 25 25 25
14 14 14 14 14 13 12 12 13 15 17 19 20 21 21 22 22 22 22 22 21 21 22 22 21 21 20 20 19 19 18 18 17 16 16 16 16 15 14 14 14 15 15 16 18 20 23 24 25 26 26 26 26 27 29 29 29 29 29 29 29 30 31 31 31 31 30 29 28 27 28 28 29 29 28 31 34 36 35 34 33 34 33 32 30 28 27 27
13 14 14 14 14 13 12 11 11 11 14 15 17 17 18 20 21 20 19 19 20 20 20 20 20 20 20 20 19 19 19 19 19 19 19 19 20 19 18 17 16 15 15 16 18 20 24 27 28 28 29 28 27 28 29 29 29 29 29 29 30 30 30 31 31 31 30 29 30 30 29 29 29 29 28 29 33 36 37 36 35 36 35 34 31 29 28 28
12 13 14 14 13 12 11 11 10 9 10 12 13 14 15 17 18 18 17 18 18 18 18 18 18 18 19 19 19 19 20 21 21 21 22 23 23 22 20 20 19 18 17 16 16 17 21 25 28 30 31 31 30 29 29 29 30 29 29 30 31 30 29 30 31 32 33 33 31 31 32 32 31 30 29 29 31 34 36 37 37 38 38 37 36 34 33 33
11 12 13 13 12 11 11 11 10 9 8 8 10 11 12 13 14 14 15 16 16 16 17 17 17 17 18 18 18 19 19 21 22 23 24 26 26 26 25 26 25 24 23 22 19 18 20 23 26 28 30 32 32 32 31 31 30 29 28 29 29 29 28 28 28 28 30 34 34 33 33 32 32 31 30 30 31 32 33 35 36 38 40 41 41 41 40 39
10 12 12 12 12 11 11 11 10 9 8 7 8 8 9 10 11 11 12 12 13 14 15 15 15 16 16 16 17 18 19 20 22 24 25 26 27 27 28 28 28 27 26 26 24 22 22 23 25 26 28 31 32 33 33 31 30 28 26 26 26 25 26 26 26 24 21 24 28 32 34 33 31 31 31 31 32 32 32 32 34 35 38 40 42 44 45 45
10 11 12 12 11 10 9 10 9 8 8 7 7 7 8 9 9 9 10 10 11 12 12 13 13 13 14 14 15 16 18 19 21 24 26 27 28 29 30 31 31 31 30 29 28 25 23 23 25 25 26 28 29 31 31 30 29 27 24 23 23 22 22 22 23 21 18 17 19 22 28 30 29 29 30 31 33 32 31 30 30 30 32 33 35 37 40 42
10 12 12 12 11 9 8 9 8 8 7 7 6 6 8 9 8 8 9 9 10 10 11 11 12 12 13 14 15 16 17 19 21 24 26 28 30 33 34 35 36 36 35 34 34 31 26 23 24 25 25 26 26 27 28 29 29 27 25 22 21 20 20 19 19 18 18 18 18 17 19 22 23 23 24 24 25 26 27 27 27 26 26 26 26 27 30 33
11 13 13 12 11 9 9 10 9 8 8 8 8 8 8 8 8 9 9 9 10 11 12 12 13 14 14 15 15 17 18 19 21 23 26 29 32 34 36 38 39 40 39 37 36 35 31 24 21 24 24 23 23 23 24 25 27 28 25 22 20 20 19 19 19 19 19 19 19 18 17 18 19 20 20 19 18 20 23 25 25 24 23 24 24 24 24 27
11 12 12 12 11 10 10 11 11 10 9 9 8 8 7 7 8 8 9 10 11 12 13 13 14 15 16 17 17 17 19 20 21 23 26 29 32 34 37 40 41 41 40 38 36 35 33 25 19 22 24 21 21 20 20 20 22 24 24 22 20 20 20 19 18 19 20 20 20 20 18 17 17 19 21 20 18 19 21 23 24 23 21 21 23 23 23 25
11 11 11 11 11 11 11 11 10 10 9 8 8 8 7 7 8 8 9 10 11 13 14 14 13 14 16 18 19 19 19 20 21 23 25 28 32 34 37 40 42 43 42 40 37 35 34 27 21 21 23 21 20 19 19 18 18 18 20 20 20 20 19 18 17 17 18 19 20 21 19 18 17 17 18 18 18 20 22 24 25 24 22 21 22 21 21 23
10 10 11 11 11 12 12 11 10 8 8 8 9 9 9 9 9 9 9 10 11 13 14 15 14 15 16 18 19 20 20 21 21 22 24 27 31 33 37 40 42 43 43 41 38 36 34 30 25 22 20 19 17 17 17 17 15 14 14 14 15 16 16 16 15 15 16 17 18 20 20 18 17 17 17 17 18 20 22 24 24 25 24 23 22 21 20 21
9 9 10 10 11 12 12 12 10 8 7 8 8 8 9 10 10 10 10 11 11 12 13 13 14 16 17 19 20 20 20 21 22 23 24 26 29 32 35 39 41 42 43 42 40 37 34 31 27 24 21 17 14 14 15 14 14 13 10 10 9 9 10 11 12 12 14 15 16 18 19 17 17 18 18 19 20 20 21 22 23 23 24 24 23 22 22 22
8 8 9 10 11 12 12 12 10 8 7 8 8 9 9 10 10 11 11 11 11 11 11 12 13 16 18 20 21 20 20 21 22 23 24 26 28 31 33 37 40 42 43 43 41 38 34 30 26 22 21 20 16 14 14 12 11 11 10 10 10 10 10 11 12 12 13 14 15 16 17 17 16 17 18 20 21 22 22 22 22 22 22 23 23 23 23 24
7 8 8 9 10 11 12 12 11 10 9 9 9 9 9 10 11 12 12 12 12 12 12 13 15 16 17 19 22 22 21 21 22 23 24 25 27 30 32 35 38 41 42 42 41 40 35 31 27 20 17 18 18 16 15 13 10 10 10 11 13 14 14 14 15 15 15 15 15 15 16 16 16 16 17 19 20 22 23 23 23 22 22 22 22 22 23 24
7 7 8 9 9 10 11 12 12 12 11 10 10 9 10 12 13 14 14 14 13 14 14 15 17 17 18 19 20 21 20 20 22 23 24 25 27 29 31 34 36 39 41 41 41 40 37 35 31 23 16 16 17 16 14 13 12 12 12 12 13 14 14 14 15 15 15 15 15 16 15 15 16 16 16 17 18 20 22 23 23 23 23 24 24 24 24 24
7 7 8 8 9 10 11 12 12 12 12 11 11 11 11 12 14 14 14 14 15 15 16 17 18 19 20 21 20 20 20 20 22 23 24 24 26 28 30 33 35 37 39 40 40 40 38 37 34 29 22 19 17 15 13 11 12 13 14 14 14 14 13 13 13 13 13 13 14 16 15 15 15 16 17 17 17 18 19 21 21 22 23 24 25 26 25 25
8 8 8 8 9 10 10 11 12 12 12 11 11 11 11 12 13 14 14 15 16 17 17 18 19 20 21 21 22 22 22 22 22 23 24 24 25 27 29 32 34 35 37 39 39 39 38 37 35 32 28 23 19 16 14 11 11 12 13 15 15 15 13 12 12 12 12 12 12 13 14 14 14 15 16 16 17 18 19 20 20 21 21 23 25 26 25 24
9 9 9 9 9 10 11 11 11 12 12 12 12 12 12 13 14 15 16 17 18 18 18 19 20 21 21 21 22 23 23 23 23 24 24 24 25 26 28 30 32 34 36 37 38 38 37 36 35 33 30 26 21 17 15 13 11 11 12 14 14 15 14 13 12 11 11 12 11 11 12 13 13 14 14 15 16 16 17 18 19 20 20 21 22 23 24 24
10 10 10 10 10 10 11 11 11 12 12 12 13 13 14 14 15 16 17 18 18 19 19 20 20 21 21 21 22 23 23 23 23 23 23 24 24 25 27 29 31 33 34 36 37 37 35 35 35 33 31 28 23 19 17 14 13 12 12 13 14 15 15 14 13 12 12 12 12 13 13 14 14 14 14 14 15 15 16 17 18 19 20 20 20 21 22 24
11 11 11 11 10 11 11 11 11 12 12 13 13 14 15 15 16 17 17 18 19 20 20 20 21 21 21 22 22 23 23 23 23 23 23 24 25 25 26 28 30 31 33 35 36 36 34 34 34 33 32 29 26 23 20 18 16 15 14 14 14 14 15 15 14 13 12 13 13 14 15 15 15 15 14 14 14 14 15 16 17 18 19 20 20 20 20 22
13 13 12 12 12 11 11 11 12 13 13 13 13 14 15 15 16 17 18 18 19 20 20 21 21 21 22 22 22 23 23 24 24 24 24 25 24 24 25 27 28 30 31 33 34 35 35 34 33 33 31 29 27 26 24 22 18 17 16 15 14 13 14 15 14 14 14 14 16 16 17 16 17 17 17 17 17 17 17 17 17 17 18 19 20 20 20 21
14 14 14 13 13 13 12 12 13 13 13 13 14 15 15 16 17 18 19 20 20 20 21 22 22 23 23 23 23 24 24 25 26 26 26 25 24 23 24 25 27 29 30 31 32 34 34 34 33 32 30 29 27 26 25 23 20 18 16 15 14 14 14 14 14 14 15 16 16 17 17 17 17 18 19 19 20 20 20 20 19 18 18 18 19 20 20 21
Wind_Direction
323 321 321 322 323 323 320 313 308 303 298 292 287 282 278 275 272 267 263 258 254 249 244 241 239 239 238 237 236 235 234 234 234 235 235 235 234 234 234 234 236 236 234 233 236 236 235 234 235 235 233 231 227 223 216 202 186 184 188 187 191 206 214 213 208 205 209 217 218 221 227 223 220 222 225 226 221 220 227 236 247 258 267 274 280 286 291 300
325 323 324 325 326 325 322 315 310 306 301 296 290 285 279 274 271 267 263 259 254 250 245 240 238 237 237 236 235 234 233 232 232 233 234 233 233 233 232 232 234 236 235 233 234 236 235 234 234 233 232 230 227 225 216 200 190 190 197 195 194 205 213 214 213 210 213 219 222 227 236 239 237 241 247 242 229 226 232 240 248 256 265 274 280 284 292 303
328 326 327 328 328 327 323 317 312 308 305 300 295 289 283 276 272 267 262 258 254 249 245 240 236 235 235 234 233 233 232 231 230 231 231 232 231 231 231 231 232 234 235 235 235 235 235 234 234 233 231 229 225 222 213 201 198 197 205 204 200 207 212 215 215 213 217 222 226 231 237 245 249 252 254 247 241 241 242 247 254 259 266 272 278 286 296 303
331 329 330 331 330 328 325 319 314 311 307 304 300 294 287 280 274 268 262 257 253 248 244 239 235 233 233 233 231 231 230 229 228 228 229 230 229 230 230 230 230 232 233 234 234 235 235 234 234 233 231 230 226 219 206 199 206 208 212 212 210 213 214 216 218 217 223 227 231 236 238 243 251 256 255 248 244 245 248 251 256 261 266 272 281 291 297 297
334 333 334 334 332 329 326 321 317 313 309 305 301 297 291 284 278 271 263 257 252 248 243 238 234 231 230 230 229 229 228 228 227 227 227 228 228 228 229 229 229 230 231 232 232 234 235 235 235 234 231 230 228 223 208 196 205 216 220 219 221 224 222 223 225 224 228 232 236 241 242 245 252 258 261 257 249 247 251 254 257 262 268 275 284 290 291 290
338 337 337 337 334 331 329 325 319 315 311 305 300 297 293 287 281 274 266 259 253 249 243 238 233 229 228 228 227 226 226 226 226 226 226 227 227 227 228 229 229 229 231 232 233 233 235 235 235 235 232 229 228 226 215 199 202 219 227 228 230 233 233 232 230 230 234 237 239 244 249 252 255 259 265 262 254 251 254 255 258 264 269 275 281 284 285 288
344 342 341 341 338 336 335 332 325 319 314 307 301 298 294 287 281 275 268 261 254 249 243 237 232 227 225 225 225 224 224 224 224 224 224 225 225 225 226 227 228 229 230 232 234 235 235 236 236 237 236 232 229 227 222 208 204 220 230 233 235 237 238 237 235 237 240 240 242 249 255 257 255 258 264 264 257 253 253 256 260 266 271 274 277 279 283 288
350 348 347 347 345 344 345 343 337 328 321 314 307 301 295 287 280 274 269 264 256 248 242 236 230 224 222 224 223 222 221 222 222 222 223 223 223 224 225 226 226 228 229 232 234 235 237 237 238 239 239 238 235 232 229 218 209 218 229 234 239 241 242 243 242 243 245 246 248 253 257 259 260 260 261 266 266 258 254 256 261 265 270 273 275 278 282 287
357 356 355 354 355 354 355 356 352 343 333 325 318 310 301 293 283 274 270 269 261 248 237 230 226 220 219 221 221 221 219 219 220 221 222 223 223 223 225 225 225 226 227 230 233 235 238 240 241 243 243 243 240 238 236 228 219 223 231 237 242 245 249 252 253 252 252 252 253 256 258 261 264 263 264 269 270 265 259 259 263 268 274 276 275 278 283 288
4 3 2 2 4 4 4 5 4 359 351 340 331 325 315 304 289 277 269 268 268 251 231 218 214 214 214 216 218 218 217 217 218 219 220 222 223 224 225 226 225 225 226 229 233 236 238 241 243 245 246 246 244 243 240 236 232 232 237 242 245 249 255 260 263 263 261 259 258 259 261 262 264 268 270 268 267 265 264 266 271 276 279 278 278 281 284 288
9 9 8 8 10 11 11 11 11 10 6 1 354 344 333 314 293 279 265 258 259 252 223 204 199 204 208 210 213 214 212 213 214 215 216 218 221 222 224 227 228 227 227 230 233 237 239 242 245 245 245 246 245 243 239 236 236 237 241 245 247 252 259 263 266 266 265 263 261 262 263 264 266 270 269 266 265 264 267 273 277 277 276 276 278 281 284 289
12 12 12 13 14 16 17 17 17 15 13 13 11 4 353 330 295 278 263 242 222 231 213 195 191 196 202 205 208 208 208 209 210 211 213 215 218 220 221 222 223 222 222 226 230 236 239 241 243 242 242 243 243 242 238 235 236 238 241 246 249 253 258 262 264 264 263 262 261 262 263 264 266 266 266 265 264 264 267 270 267 265 268 271 274 278 283 288
14 14 15 17 18 19 20 21 22 21 19 17 17 20 19 13 340 281 249 217 185 186 204 192 188 192 199 203 204 204 205 206 207 208 210 213 215 217 217 215 216 218 219 223 227 231 232 233 235 235 236 236 236 235 234 233 235 237 238 244 249 252 256 258 259 259 258 258 260 260 260 263 264 263 260 257 255 256 258 257 254 254 257 264 268 274 282 286
16 16 17 20 22 22 22 23 26 27 26 26 26 29 33 42 55 75 127 154 145 131 163 185 184 186 195 199 198 198 202 205 204 205 207 210 213 216 219 220 224 226 229 229 230 232 233 236 238 238 238 238 236 231 226 226 228 230 233 244 250 251 252 251 251 253 255 256 254 254 256 259 259 255 248 245 246 249 251 251 249 247 248 255 262 271 279 284
17 17 18 22 25 25 25 26 28 30 32 35 36 36 37 44 61 78 93 105 104 104 117 161 175 179 187 189 186 190 199 203 202 201 203 207 211 215 220 224 230 232 232 234 235 240 244 247 249 248 247 247 246 240 232 227 224 224 226 235 244 245 244 243 245 246 247 247 245 247 250 250 248 245 241 242 242 245 247 249 249 248 250 253 259 269 277 280
19 19 20 24 27 29 29 29 31 33 36 39 41 42 40 43 61 81 89 93 93 100 113 138 158 166 177 177 171 179 194 200 201 199 199 204 207 210 215 219 226 229 230 232 235 240 245 251 255 253 249 246 246 244 241 235 229 226 224 226 229 234 238 239 241 240 237 236 238 242 241 238 241 241 238 239 242 246 247 248 251 253 254 254 254 259 269 276
20 21 22 25 29 32 33 33 34 36 39 41 43 45 44 45 58 80 91 93 93 98 106 124 144 151 161 164 158 167 184 193 199 199 199 203 207 210 214 217 223 227 228 229 232 236 241 248 251 249 246 243 242 242 242 239 233 229 225 225 224 228 234 236 237 237 233 232 234 238 234 229 238 241 238 238 241 247 250 251 255 257 257 257 254 257 268 276
22 23 24 26 31 34 35 37 37 38 40 42 43 46 48 49 55 70 87 95 100 104 109 120 137 145 151 151 145 153 171 181 191 198 199 202 207 211 216 220 227 231 232 233 235 239 241 245 246 245 244 242 239 239 240 237 233 230 226 226 228 228 232 233 234 234 233 232 233 238 237 230 234 239 240 239 241 247 251 255 261 263 263 262 260 264 271 278
24 25 26 28 32 36 37 39 40 40 42 44 45 47 49 52 54 60 72 84 95 105 112 121 132 134 136 137 134 140 156 171 184 194 200 202 205 211 217 221 228 233 239 242 243 244 243 244 244 243 243 241 239 236 234 231 231 232 230 230 232 232 233 236 236 236 238 239 239 242 242 237 237 240 243 243 245 251 255 257 262 262 261 261 261 265 271 282
26 27 28 30 33 37 39 40 42 43 44 46 47 49 51 53 56 59 65 72 80 90 101 114 122 122 122 124 127 133 145 164 178 188 197 201 205 213 221 227 233 238 244 248 249 249 247 247 248 250 250 248 246 242 238 236 237 239 237 235 235 236 237 238 238 239 244 246 243 243 243 240 239 242 245 247 250 256 259 257 257 258 258 257 257 262 270 291
27 29 31 32 34 37 40 42 44 45 46 47 48 51 53 55 57 59 63 69 72 78 89 98 102 105 111 117 121 129 142 161 175 185 193 199 205 214 224 232 239 243 247 248 250 252 253 255 257 258 256 253 250 247 245 243 242 242 241 240 238 237 236 235 234 237 245 246 241 242 244 242 243 243 245 251 254 258 259 256 253 254 257 260 260 261 270 300
28 30 33 35 36 38 41 43 45 47 48 49 50 52 54 56 58 59 61 65 67 69 76 83 86 87 96 110 121 131 146 169 182 187 192 200 208 218 227 233 239 244 248 251 254 256 256 258 259 259 257 255 252 249 247 246 245 243 244 243 239 234 231 229 230 233 241 244 239 241 245 245 247 246 245 250 253 254 256 255 253 251 253 261 267 266 271 305
29 30 34 37 39 40 41 43 45 47 50 51 52 53 55 57 59 60 61 64 67 68 70 71 70 68 72 85 106 130 153 190 204 201 202 210 217 227 234 237 239 241 245 247 250 253 255 255 255 256 255 254 252 249 248 247 246 245 244 244 238 232 229 225 225 229 236 242 241 241 245 247 250 250 248 249 248 249 254 257 258 256 254 260 268 269 274 302
30 31 34 38 41 42 43 44 46 47 49 52 54 55 57 58 60 62 63 64 65 66 67 67 66 62 60 61 65 87 127 192 221 225 225 230 234 237 239 240 240 240 242 244 246 250 252 252 253 255 255 254 254 252 249 246 246 246 246 245 240 233 229 223 222 226 231 238 242 243 245 248 251 251 248 247 247 249 253 258 261 261 257 260 266 271 276 293
30 31 33 37 41 44 45 46 46 48 49 51 53 55 57 58 59 61 62 63 64 64 64 66 67 65 63 61 60 60 59 54 264 249 247 251 253 251 253 255 255 253 252 252 254 257 258 257 258 259 258 256 255 253 250 247 246 246 246 246 242 236 232 227 224 225 228 234 241 245 246 246 248 249 248 247 250 252 255 260 263 260 254 257 263 270 276 283
28 32 33 36 40 44 47 48 48 48 50 51 52 54 56 57 58 60 62 64 65 66 66 67 68 69 70 72 74 73 67 64 62 49 284 269 264 265 272 276 276 275 271 266 265 268 272 272 269 268 267 265 262 257 254 252 248 246 247 249 248 244 239 234 230 228 229 232 238 243 246 245 243 245 247 248 250 253 257 262 263 257 252 253 257 260 263 269
25 30 32 35 39 43 47 50 51 50 50 51 53 54 55 57 59 60 62 64 65 66 68 70 71 71 74 78 80 79 76 74 72 68 58 31 311 295 303 298 290 287 283 276 274 276 278 277 275 274 273 273 272 268 264 262 256 251 252 253 253 253 250 246 242 238 236 235 237 241 245 248 246 244 247 249 251 255 259 263 265 262 257 256 257 255 253 261
22 27 31 33 36 41 46 50 53 53 52 52 53 54 55 56 58 59 60 62 63 65 67 68 68 70 73 75 76 76 75 71 62 52 45 31 5 343 336 319 302 298 291 280 275 275 274 273 274 274 274 273 271 270 269 268 265 262 261 260 260 259 258 255 253 251 249 246 244 244 247 251 251 249 250 252 254 257 260 262 265 266 264 262 262 261 259 262
21 25 28 30 32 37 43 47 52 55 55 54 54 55 55 56 57 58 59 60 61 62 63 62 62 62 62 62 62 61 59 55 47 41 35 21 6 354 341 325 312 307 301 288 277 272 270 270 269 269 269 268 266 265 265 265 264 264 265 265 265 264 262 262 261 261 260 256 251 251 253 255 254 251 252 255 257 258 258 259 261 263 263 262 263 264 262 264
20 22 25 27 28 32 38 43 48 54 55 55 56 56 56 56 56 57 57 58 59 59 59 58 57 55 53 52 50 46 43 41 37 32 27 15 6 358 347 336 324 315 306 296 287 281 276 274 271 268 264 262 262 262 263 263 263 263 263 263 263 264 264 264 264 265 264 260 256 257 261 262 262 259 256 256 257 258 257 256 257 259 259 259 261 263 264 267
18 19 21 24 25 26 30 36 42 49 53 54 54 55 56 57 55 55 56 55 56 55 54 54 53 50 47 45 43 39 34 30 26 22 18 11 4 359 353 346 335 325 318 307 299 292 286 281 277 274 270 267 265 264 264 266 266 265 265 264 264 264 264 262 262 263 263 262 261 263 262 262 265 266 261 255 253 254 254 254 255 256 257 259 261 264 267 268
14 15 16 20 23 22 23 28 33 40 46 49 51 52 54 55 55 54 53 53 53 53 52 50 48 45 44 41 38 34 29 23 18 14 12 7 4 0 354 349 341 331 323 313 305 298 293 288 285 282 279 275 271 269 267 267 268 268 269 269 269 267 265 264 263 262 262 263 263 263 262 260 262 264 262 256 251 250 251 253 254 255 255 256 259 261 263 265
10 11 12 16 21 19 19 24 25 27 35 40 43 45 47 51 53 52 50 49 50 51 50 48 44 42 40 38 33 28 24 20 14 11 8 5 2 358 352 347 340 333 324 313 303 293 285 283 282 282 282 279 276 273 271 271 271 272 272 273 273 272 271 269 268 265 262 261 261 261 260 261 261 261 262 259 256 252 250 251 253 253 253 253 255 257 258 261
5 7 8 13 18 17 17 19 20 18 19 22 28 32 35 41 45 48 47 45 45 47 47 45 42 40 37 34 30 23 19 17 12 8 6 3 359 354 351 347 342 337 329 321 314 303 290 280 275 275 275 275 275 275 275 275 274 273 271 272 273 273 274 274 276 276 268 262 262 262 262 261 259 257 258 259 258 256 254 254 254 256 256 255 256 257 258 260
358 1 4 9 15 17 17 16 16 13 8 6 11 12 15 26 33 34 33 31 33 37 38 38 37 35 32 29 25 19 14 12 9 6 3 1 356 352 351 348 345 341 334 327 322 315 307 296 286 281 276 273 272 273 275 275 275 274 271 269 270 272 273 273 277 284 281 272 268 264 261 261 259 257 258 258 258 257 257 257 258 260 260 260 259 259 260 261
349 353 0 7 13 16 18 17 14 11 8 5 1 355 359 12 15 10 9 10 15 19 20 23 24 23 21 19 17 14 10 8 5 2 1 359 355 352 352 350 348 346 342 336 331 325 317 307 299 294 286 280 277 275 275 275 275 275 273 272 271 271 273 272 274 282 286 284 281 271 265 263 261 259 259 258 257 258 258 258 259 260 262 262 261 262 262 263
342 348 357 4 9 13 16 19 16 13 12 6 357 357 1 1 352 345 350 352 356 357 355 360 5 4 2 2 3 2 2 3 1 359 359 358 356 354 352 352 351 351 349 345 340 336 332 322 309 300 293 289 287 282 279 278 277 277 277 277 278 277 276 275 276 281 282 283 285 283 277 274 268 264 261 257 255 256 259 261 262 263 263 264 263 262 263 264
341 348 355 359 2 8 13 17 16 14 14 8 4 6 359 346 337 340 347 349 350 350 346 346 349 350 350 351 353 351 350 355 356 355 357 356 355 354 352 352 353 353 352 350 346 342 340 336 320 307 302 298 295 291 286 282 281 282 283 283 283 284 283 281 278 278 279 280 281 282 283 281 275 270 265 261 259 260 262 264 266 267 267 268 267 265 264 265
341 346 352 355 358 7 14 15 14 11 7 5 7 5 348 333 331 334 342 348 350 353 354 350 345 343 343 346 350 347 344 347 349 351 354 354 354 353 352 352 353 353 354 353 350 347 345 343 330 318 317 310 301 299 297 293 288 288 291 291 290 289 289 287 283 277 276 276 276 277 279 280 279 272 263 258 258 258 259 261 265 268 269 271 271 268 264 263
338 343 351 354 358 8 16 18 15 5 357 0 6 1 348 341 336 331 334 339 342 347 353 355 350 344 341 343 348 347 343 343 344 347 351 352 352 352 352 352 353 354 355 355 354 353 351 349 341 332 328 320 309 304 303 302 300 297 295 295 294 293 292 291 288 283 278 276 275 275 275 276 278 274 263 255 253 252 255 259 264 267 268 270 271 269 264 261
334 343 351 354 359 6 13 19 15 0 352 359 3 358 353 349 345 341 339 337 338 343 347 351 352 350 346 344 346 346 343 341 341 345 349 350 350 351 352 352 353 354 356 356 357 357 356 353 350 346 340 330 319 312 308 306 307 306 304 301 297 295 296 296 293 290 286 281 279 276 274 274 273 271 268 263 259 257 258 260 263 265 267 267 266 266 265 263
332 342 349 354 1 4 8 16 15 0 353 356 358 359 1 358 352 350 349 345 344 343 344 348 349 349 348 347 347 346 341 338 340 343 346 348 349 350 351 351 351 353 355 357 358 359 359 358 355 352 351 348 337 325 320 316 309 305 313 323 320 311 307 304 300 298 295 291 287 281 278 278 274 269 269 267 266 265 263 262 262 265 267 267 265 265 266 265
331 341 347 355 1 1 4 12 12 5 359 356 356 0 6 6 0 357 354 350 346 344 346 350 350 349 348 346 344 343 339 337 338 341 343 345 348 349 350 350 350 352 355 358 359 359 1 3 0 353 350 353 350 337 332 330 318 304 305 313 314 313 311 307 305 304 300 297 293 288 284 282 278 273 270 268 268 269 268 266 264 265 267 269 268 266 266 266
330 337 344 353 358 359 3 6 8 9 7 358 354 356 2 5 5 3 359 353 349 348 349 350 350 349 347 344 341 339 338 337 335 338 341 343 345 347 349 350 349 351 355 357 358 359 360 3 5 2 351 346 347 343 338 337 330 315 304 299 300 304 304 302 303 303 301 300 296 291 287 283 279 276 274 271 270 270 270 271 270 268 269 270 269 268 267 268
322 330 338 347 351 355 0 3 6 10 7 358 352 355 1 2 2 3 359 353 349 348 346 345 346 345 342 341 338 334 334 335 334 337 339 339 342 345 348 349 349 350 354 356 357 359 359 0 4 7 358 346 346 346 339 332 326 320 316 311 307 308 306 304 304 303 302 301 296 291 288 285 284 283 279 276 273 272 272 273 274 272 270 269 268 267 267 268
310 319 329 338 343 349 356 359 3 7 6 359 354 356 3 3 0 357 352 346 344 343 340 339 341 340 337 336 335 332 333 335 335 335 335 335 339 343 345 347 348 349 353 355 357 359 359 358 0 4 2 359 356 351 341 329 322 321 322 322 319 316 313 310 309 307 305 303 297 293 290 287 287 288 287 284 280 277 276 277 277 276 273 270 268 268 268 269
302 309 319 329 335 342 348 353 356 360 0 357 353 355 0 360 356 350 346 343 341 339 336 334 335 336 335 334 333 333 335 335 334 333 333 333 337 341 343 346 347 348 351 354 356 358 359 358 358 360 2 5 3 353 341 332 326 323 323 323 321 317 314 313 311 311 313 310 304 299 297 295 292 290 291 291 288 285 282 280 279 278 276 274 272 270 269 269
294 300 308 318 328 335 339 344 347 349 349 350 350 351 354 354 351 347 344 343 340 336 333 332 332 334 334 333 332 333 334 333 332 331 330 330 334 339 342 344 346 347 349 352 355 357 358 358 357 358 1 5 5 354 343 335 327 321 319 321 319 313 309 310 311 313 316 315 311 307 306 307 305 301 298 296 295 292 289 285 282 280 278 276 273 271 269 268
285 291 299 309 319 325 329 333 336 336 338 343 346 347 348 350 349 345 342 341 338 335 333 333 334 335 334 332 331 332 332 331 329 327 327 329 333 337 340 342 344 346 347 349 353 356 358 358 357 357 360 4 4 358 351 344 335 329 326 325 322 313 307 307 309 310 310 310 311 312 312 311 310 306 302 299 298 296 294 291 286 283 281 279 275 271 267 265
277 283 291 300 307 312 318 322 324 326 331 336 338 340 343 345 344 341 339 339 337 335 336 337 336 335 333 332 331 330 329 328 326 326 328 330 332 335 338 339 340 344 346 347 350 354 357 357 356 356 358 2 3 0 357 353 346 340 336 333 330 321 313 309 307 308 309 309 310 313 315 314 310 306 302 301 302 304 303 299 292 286 283 281 279 275 269 265
272 278 285 291 296 302 309 313 315 319 324 328 329 332 336 337 337 335 335 336 335 334 335 337 336 335 333 331 329 328 328 328 328 329 331 331 330 332 334 335 337 342 345 345 347 350 354 355 354 355 357 360 1 360 359 358 352 343 337 335 334 330 323 317 312 310 310 310 308 308 308 309 308 306 304 303 303 305 306 305 301 296 290 285 283 280 274 268
269 274 280 285 288 294 301 305 308 312 316 318 321 325 328 328 329 331 331 332 331 330 332 333 334 333 332 330 329 329 330 332 332 332 331 329 328 328 331 334 336 339 342 344 345 347 350 352 353 354 355 357 359 358 358 357 354 346 339 337 334 331 328 322 314 310 308 308 307 305 304 304 304 303 303 302 301 300 300 301 302 302 299 295 291 287 280 273
Height
5775 5772 5768 5765 5761 5758 5754 5752 5749 5747 5746 5745 5744 5743 5742 5742 5742 5742 5743 5743 5744 5745 5746 5748 5749 5751 5752 5754 5756 5757 5758 5760 5761 5762 5764 5765 5766 5767 5768 5769 5770 5770 5771 5772 5773 5774 5775 5777 5778 5778 5779 5779 5780 5781 5782 5783 5784 5784 5785 5785 5786 5786 5787 5789 5791 5792 5793 5793 5794 5794 5794 5796 5797 5798 5799 5799 5799 5800 5801 5802 5802 5803 5804 5804 5805 5805 5805 5805
5773 5769 5766 5762 5759 5755 5752 5749 5746 5745 5743 5742 5741 5740 5739 5739 5739 5739 5740 5740 5741 5742 5743 5745 5747 5748 5750 5752 5753 5755 5756 5758 5759 5760 5762 5763 5764 5765 5766 5768 5768 5769 5770 5771 5772 5773 5774 5775 5776 5777 5778 5778 5779 5780 5782 5783 5783 5783 5784 5784 5785 5785 5786 5788 5790 5791 5792 5793 5793 5793 5794 5795 5796 5797 5798 5798 5798 5799 5800 5801 5801 5802 5803 5803 5803 5803 5804 5804
5771 5767 5763 5760 5756 5752 5749 5746 5743 5742 5740 5739 5738 5737 5737 5736 5736 5736 5737 5737 5738 5739 5741 5742 5744 5746 5747 5749 5751 5753 5754 5756 5757 5759 5760 5762 5763 5764 5765 5766 5767 5768 5769 5770 5771 5772 5773 5774 5775 5776 5776 5777 5778 5780 5781 5782 5782 5783 5783 5783 5783 5784 5785 5787 5789 5790 5791 5792 5793 5793 5794 5794 5795 5796 5796 5796 5797 5797 5799 5799 5800 5801 5801 5802 5802 5802 5802 5802
5770 5765 5761 5757 5753 5749 5746 5743 5741 5739 5738 5737 5736 5735 5734 5734 5734 5734 5734 5735 5736 5737 5738 5739 5741 5743 5745 5747 5749 5751 5752 5754 5755 5757 5759 5760 5761 5762 5763 5765 5766 5767 5768 5769 5770 5771 5772 5772 5773 5774 5775 5776 5778 5779 5780 5781 5782 5782 5782 5782 5782 5783 5784 5786 5787 5789 5790 5791 5791 5792 5793 5793 5794 5794 5795 5795 5796 5797 5798 5798 5799 5800 5800 5801 5801 5801 5801 5801
5768 5764 5759 5755 5751 5747 5743 5740 5738 5736 5735 5734 5733 5733 5732 5732 5732 5732 5732 5733 5734 5734 5736 5737 5739 5741 5743 5745 5747 5749 5750 5752 5754 5756 5757 5759 5760 5761 5762 5763 5764 5766 5767 5768 5769 5769 5770 5771 5772 5773 5774 5775 5777 5777 5779 5780 5781 5781 5781 5781 5782 5782 5784 5785 5786 5787 5788 5789 5790 5790 5792 5793 5793 5794 5794 5794 5795 5796 5797 5798 5798 5799 5800 5800 5800 5800 5800 5799
5767 5762 5758 5753 5748 5744 5741 5738 5735 5734 5733 5732 5731 5730 5730 5730 5730 5730 5730 5731 5732 5733 5734 5735 5737 5739 5741 5743 5745 5747 5749 5750 5752 5754 5756 5757 5759 5760 5761 5762 5763 5764 5766 5767 5767 5768 5769 5770 5771 5772 5773 5774 5775 5776 5778 5779 5779 5779 5780 5780 5781 5782 5783 5784 5785 5786 5787 5788 5788 5789 5790 5792 5793 5793 5794 5794 5795 5796 5796 5797 5798 5798 5799 5799 5800 5799 5798 5798
5766 5761 5756 5751 5746 5742 5738 5735 5733 5731 5730 5730 5729 5729 5729 5728 5728 5729 5729 5730 5730 5731 5732 5733 5735 5737 5739 5741 5743 5745 5747 5749 5751 5753 5754 5756 5758 5759 5760 5761 5762 5763 5764 5765 5766 5767 5768 5769 5770 5771 5772 5773 5774 5775 5777 5778 5779 5778 5779 5780 5780 5781 5782 5783 5784 5785 5786 5787 5787 5788 5789 5791 5792 5793 5793 5794 5795 5795 5796 5796 5797 5798 5798 5798 5798 5798 5797 5797
5765 5760 5755 5750 5745 5740 5737 5734 5731 5730 5729 5728 5728 5727 5727 5727 5727 5728 5728 5728 5729 5730 5731 5732 5734 5736 5738 5740 5742 5744 5746 5748 5749 5751 5753 5755 5756 5758 5759 5760 5761 5762 5763 5764 5765 5766 5767 5768 5769 5770 5771 5772 5774 5775 5777 5778 5778 5777 5778 5779 5779 5780 5781 5782 5783 5784 5786 5786 5787 5787 5788 5790 5791 5792 5792 5793 5794 5794 5795 5796 5796 5797 5797 5797 5797 5796 5796 5795
5764 5759 5754 5748 5744 5739 5736 5733 5730 5729 5728 5727 5727 5726 5726 5726 5727 5727 5727 5728 5728 5729 5730 5731 5733 5735 5737 5739 5741 5743 5745 5746 5748 5750 5752 5754 5755 5757 5758 5759 5760 5761 5762 5763 5764 5765 5766 5768 5769 5770 5771 5772 5773 5775 5777 5778 5778 5777 5777 5778 5779 5780 5780 5781 5783 5784 5785 5786 5786 5786 5787 5788 5789 5790 5791 5792 5793 5793 5794 5795 5795 5796 5796 5796 5795 5795 5794 5794
5764 5759 5753 5748 5743 5739 5735 5732 5730 5728 5727 5726 5726 5726 5726 5726 5726 5727 5727 5727 5728 5728 5729 5731 5732 5734 5736 5738 5740 5742 5744 5746 5747 5749 5751 5753 5755 5756 5757 5758 5759 5760 5761 5762 5763 5764 5766 5767 5768 5769 5770 5770 5772 5774 5776 5777 5777 5777 5777 5778 5779 5779 5779 5781 5783 5784 5785 5785 5786 5785 5785 5786 5787 5788 5789 5790 5791 5792 5793 5794 5794 5794 5794 5794 5793 5793 5793 5793
5764 5759 5753 5748 5743 5740 5736 5733 5731 5729 5727 5726 5726 5725 5725 5726 5726 5726 5727 5727 5728 5728 5729 5730 5732 5733 5735 5737 5739 5740 5743 5745 5747 5749 5751 5752 5754 5755 5756 5758 5759 5760 5761 5762 5763 5764 5765 5766 5767 5768 5768 5769 5770 5772 5774 5775 5776 5776 5777 5778 5778 5778 5779 5780 5782 5782 5783 5784 5784 5784 5783 5784 5786 5787 5788 5788 5789 5790 5791 5792 5792 5793 5793 5792 5792 5792 5792 5792
5764 5759 5754 5749 5744 5740 5737 5734 5732 5729 5728 5727 5726 5725 5725 5725 5726 5726 5727 5727 5728 5728 5729 5730 5731 5732 5734 5736 5738 5740 5742 5744 5746 5748 5750 5752 5753 5755 5756 5757 5758 5759 5760 5761 5762 5763 5764 5765 5765 5766 5767 5768 5769 5770 5772 5773 5774 5775 5776 5777 5777 5778 5778 5779 5780 5780 5781 5782 5782 5782 5781 5782 5785 5786 5786 5786 5787 5788 5789 5790 5790 5791 5791 5791 5791 5790 5790 5791
5765 5760 5755 5750 5745 5742 5739 5736 5733 5731 5729 5727 5726 5725 5725 5725 5725 5726 5726 5727 5728 5728 5729 5730 5731 5732 5734 5736 5738 5740 5742 5744 5746 5748 5750 5751 5753 5755 5756 5757 5758 5758 5759 5760 5761 5762 5763 5763 5764 5765 5765 5766 5767 5769 5770 5771 5772 5773 5774 5775 5776 5777 5777 5777 5778 5778 5779 5779 5780 5779 5779 5781 5782 5783 5785 5785 5785 5785 5786 5787 5788 5788 5789 5789 5789 5789 5789 5789
5767 5762 5757 5752 5747 5743 5740 5737 5735 5732 5730 5728 5727 5726 5726 5725 5725 5726 5726 5727 5728 5729 5729 5730 5731 5733 5735 5737 5739 5741 5742 5744 5746 5748 5749 5751 5753 5754 5756 5757 5757 5758 5759 5760 5761 5761 5762 5762 5763 5764 5765 5765 5766 5767 5768 5769 5770 5771 5772 5773 5774 5774 5774 5775 5775 5776 5777 5778 5778 5776 5777 5780 5779 5781 5783 5782 5783 5784 5784 5785 5786 5786 5787 5787 5787 5788 5788 5787
5769 5764 5759 5754 5749 5746 5742 5739 5737 5734 5732 5730 5729 5728 5727 5727 5726 5726 5727 5728 5728 5729 5730 5731 5732 5734 5735 5737 5740 5741 5742 5744 5746 5748 5749 5751 5753 5754 5755 5756 5757 5758 5759 5760 5760 5761 5762 5762 5763 5764 5764 5765 5765 5766 5766 5767 5769 5770 5771 5772 5772 5772 5772 5773 5773 5774 5775 5775 5775 5774 5776 5778 5777 5778 5780 5780 5781 5782 5782 5783 5784 5785 5785 5785 5786 5786 5786 5785
5771 5766 5762 5757 5752 5748 5745 5742 5739 5736 5734 5733 5731 5730 5729 5728 5728 5727 5728 5728 5729 5730 5731 5731 5733 5734 5736 5738 5740 5742 5743 5744 5746 5748 5749 5751 5752 5754 5755 5756 5757 5758 5758 5759 5760 5761 5761 5762 5762 5763 5763 5764 5764 5765 5765 5766 5767 5768 5769 5770 5770 5770 5770 5770 5771 5772 5772 5772 5772 5772 5775 5776 5775 5777 5777 5778 5779 5779 5780 5781 5782 5783 5783 5784 5784 5784 5784 5783
5773 5769 5765 5760 5755 5751 5747 5744 5741 5739 5737 5735 5734 5733 5731 5730 5730 5729 5729 5729 5730 5731 5732 5733 5733 5735 5737 5739 5741 5742 5743 5745 5747 5748 5750 5751 5752 5754 5754 5755 5756 5757 5758 5758 5759 5760 5760 5761 5761 5762 5762 5762 5763 5763 5764 5765 5766 5766 5766 5767 5767 5768 5768 5768 5769 5769 5769 5769 5770 5770 5772 5774 5774 5775 5775 5776 5777 5777 5778 5779 5780 5781 5781 5782 5782 5782 5782 5782
5776 5772 5767 5763 5758 5754 5750 5747 5744 5742 5740 5738 5736 5735 5734 5733 5732 5732 5731 5731 5732 5732 5733 5734 5734 5735 5737 5739 5741 5742 5744 5745 5747 5748 5750 5751 5753 5754 5755 5756 5756 5757 5757 5758 5758 5759 5759 5759 5760 5760 5760 5760 5761 5761 5762 5763 5763 5762 5763 5764 5765 5766 5766 5766 5766 5767 5767 5767 5768 5768 5770 5772 5771 5772 5773 5775 5775 5776 5777 5778 5778 5779 5779 5780 5780 5780 5780 5780
5778 5774 5770 5766 5762 5757 5754 5750 5747 5745 5743 5741 5739 5738 5736 5735 5735 5734 5734 5734 5734 5734 5735 5735 5736 5737 5738 5740 5741 5743 5744 5746 5747 5748 5750 5751 5753 5754 5755 5756 5756 5757 5757 5757 5757 5758 5758 5758 5758 5758 5758 5758 5759 5759 5760 5760 5759 5759 5761 5762 5763 5764 5764 5765 5765 5765 5765 5766 5767 5767 5769 5770 5769 5770 5771 5772 5773 5774 5775 5776 5776 5777 5777 5777 5778 5778 5777 5777
5780 5776 5773 5769 5765 5761 5757 5754 5751 5748 5746 5744 5742 5741 5739 5738 5737 5737 5737 5736 5737 5737 5737 5737 5738 5738 5739 5741 5742 5743 5745 5746 5747 5749 5750 5751 5753 5754 5755 5755 5756 5756 5757 5757 5757 5757 5756 5756 5756 5756 5756 5757 5757 5757 5757 5757 5757 5758 5759 5759 5760 5762 5763 5764 5764 5764 5763 5764 5766 5767 5767 5768 5768 5768 5769 5770 5771 5772 5773 5774 5774 5774 5775 5775 5776 5776 5775 5775
5781 5779 5775 5772 5768 5764 5760 5757 5754 5752 5749 5747 5745 5744 5742 5741 5740 5740 5739 5739 5739 5739 5739 5740 5740 5741 5741 5742 5743 5744 5745 5746 5748 5749 5750 5751 5753 5754 5754 5755 5756 5756 5756 5756 5755 5755 5755 5754 5755 5755 5755 5755 5755 5756 5755 5755 5755 5756 5756 5757 5758 5760 5762 5762 5762 5761 5760 5762 5765 5764 5764 5766 5766 5766 5767 5768 5769 5770 5771 5772 5772 5772 5772 5773 5773 5773 5773 5773
5783 5781 5778 5775 5771 5768 5764 5761 5758 5755 5753 5751 5749 5747 5745 5744 5743 5743 5742 5742 5741 5741 5742 5742 5742 5743 5743 5744 5744 5745 5746 5747 5748 5749 5750 5751 5752 5753 5754 5754 5755 5755 5754 5754 5754 5754 5753 5753 5753 5753 5753 5753 5753 5753 5753 5753 5753 5753 5754 5754 5756 5758 5759 5759 5759 5759 5758 5759 5761 5761 5761 5763 5763 5764 5765 5766 5767 5768 5768 5769 5769 5769 5770 5770 5771 5771 5771 5771
5785 5782 5780 5777 5774 5771 5768 5764 5762 5759 5757 5755 5752 5750 5749 5747 5746 5746 5745 5744 5744 5744 5744 5744 5744 5744 5745 5746 5747 5747 5747 5748 5748 5749 5750 5750 5751 5752 5752 5753 5753 5753 5752 5752 5752 5751 5750 5751 5751 5751 5751 5751 5751 5751 5751 5751 5751 5751 5751 5752 5754 5755 5755 5756 5756 5756 5756 5756 5757 5758 5758 5760 5761 5762 5763 5764 5765 5765 5766 5766 5767 5767 5768 5768 5768 5769 5769 5769
5786 5784 5782 5780 5777 5774 5771 5768 5765 5762 5760 5758 5755 5754 5752 5751 5750 5749 5748 5747 5747 5746 5746 5746 5746 5746 5747 5747 5748 5749 5749 5750 5750 5751 5751 5751 5751 5751 5751 5751 5751 5751 5751 5751 5750 5749 5748 5749 5749 5749 5749 5749 5749 5749 5749 5749 5749 5749 5749 5750 5751 5752 5753 5754 5754 5754 5754 5754 5754 5755 5756 5758 5759 5759 5760 5761 5762 5763 5763 5764 5765 5765 5765 5766 5766 5767 5767 5767
5787 5785 5784 5782 5779 5777 5774 5771 5769 5766 5763 5761 5759 5757 5755 5754 5753 5751 5751 5750 5749 5749 5748 5748 5748 5748 5748 5749 5749 5750 5751 5751 5752 5752 5752 5752 5752 5752 5752 5752 5752 5751 5751 5751 5750 5748 5747 5748 5748 5747 5747 5747 5747 5747 5747 5747 5747 5747 5747 5747 5748 5749 5750 5750 5751 5751 5752 5752 5752 5753 5754 5755 5756 5756 5757 5758 5759 5760 5761 5761 5763 5763 5763 5763 5764 5764 5764 5765
5788 5787 5785 5783 5781 5779 5777 5774 5772 5769 5767 5764 5762 5760 5758 5757 5755 5754 5754 5753 5752 5751 5751 5750 5750 5750 5750 5751 5751 5751 5752 5752 5753 5753 5753 5753 5753 5753 5753 5753 5752 5752 5752 5752 5750 5748 5748 5748 5747 5747 5746 5746 5746 5745 5745 5745 5745 5745 5745 5745 5745 5746 5747 5747 5748 5749 5749 5750 5750 5751 5751 5752 5753 5754 5754 5755 5756 5757 5758 5759 5760 5760 5760 5761 5762 5762 5762 5763
5789 5788 5787 5785 5783 5781 5779 5777 5775 5772 5770 5767 5765 5763 5761 5760 5758 5758 5757 5756 5755 5754 5753 5753 5753 5752 5752 5752 5752 5752 5753 5753 5753 5753 5753 5753 5753 5753 5752 5752 5752 5752 5752 5752 5750 5748 5747 5746 5746 5746 5745 5745 5744 5744 5743 5743 5743 5743 5743 5743 5743 5743 5744 5745 5746 5746 5747 5748 5748 5749 5748 5748 5750 5751 5751 5751 5752 5754 5755 5755 5756 5757 5757 5758 5759 5760 5760 5761
5790 5789 5788 5786 5785 5783 5781 5780 5777 5775 5773 5771 5769 5766 5765 5763 5762 5761 5760 5758 5758 5757 5756 5755 5755 5754 5754 5754 5754 5753 5753 5753 5753 5753 5753 5753 5753 5753 5752 5752 5751 5751 5751 5750 5749 5747 5746 5744 5744 5744 5743 5742 5742 5742 5741 5741 5741 5741 5741 5741 5741 5741 5741 5742 5743 5744 5744 5745 5746 5746 5746 5746 5746 5748 5749 5748 5749 5750 5751 5752 5753 5753 5754 5755 5756 5757 5758 5758
5791 5790 5789 5787 5786 5785 5783 5782 5779 5777 5776 5774 5772 5769 5768 5766 5765 5764 5762 5761 5760 5759 5758 5757 5757 5756 5756 5755 5755 5755 5754 5754 5754 5754 5754 5754 5753 5753 5752 5751 5750 5750 5750 5749 5747 5745 5743 5742 5741 5741 5740 5739 5738 5738 5738 5738 5738 5738 5738 5738 5738 5738 5739 5739 5740 5740 5741 5741 5742 5743 5743 5743 5743 5745 5746 5745 5746 5747 5748 5749 5750 5751 5752 5752 5753 5754 5755 5756
5792 5791 5789 5788 5787 5786 5784 5783 5781 5780 5778 5776 5774 5773 5771 5769 5768 5766 5765 5764 5763 5761 5760 5760 5759 5758 5758 5757 5756 5756 5756 5755 5755 5755 5755 5754 5754 5753 5752 5751 5750 5749 5749 5747 5746 5743 5741 5739 5738 5737 5736 5736 5735 5734 5734 5734 5734 5734 5734 5734 5735 5735 5735 5736 5736 5736 5736 5736 5738 5740 5740 5740 5740 5741 5742 5743 5743 5743 5744 5745 5746 5747 5748 5749 5750 5751 5752 5753
5792 5791 5790 5789 5788 5787 5785 5784 5783 5781 5780 5778 5776 5775 5773 5771 5770 5769 5768 5767 5765 5764 5763 5762 5761 5760 5760 5759 5758 5758 5757 5757 5756 5756 5756 5755 5754 5753 5752 5751 5750 5749 5748 5746 5744 5741 5739 5737 5735 5734 5733 5732 5732 5731 5730 5730 5730 5730 5730 5730 5731 5731 5731 5731 5732 5732 5732 5733 5734 5735 5735 5736 5737 5737 5738 5738 5738 5738 5739 5740 5742 5743 5744 5745 5746 5747 5748 5749
5793 5791 5790 5789 5788 5787 5786 5785 5784 5783 5781 5780 5778 5777 5776 5774 5772 5771 5771 5769 5768 5767 5765 5764 5763 5762 5762 5761 5760 5759 5759 5758 5757 5757 5756 5755 5754 5753 5752 5751 5750 5748 5747 5745 5742 5740 5736 5733 5732 5730 5729 5728 5728 5728 5727 5726 5726 5726 5726 5726 5726 5726 5727 5727 5727 5728 5729 5729 5730 5730 5731 5732 5733 5732 5732 5733 5734 5735 5735 5737 5738 5739 5740 5741 5742 5743 5744 5745
5793 5792 5791 5790 5789 5788 5787 5786 5785 5784 5782 5781 5780 5779 5777 5776 5774 5774 5773 5771 5770 5769 5768 5766 5765 5764 5763 5763 5762 5761 5760 5759 5758 5757 5756 5755 5754 5752 5751 5749 5748 5746 5745 5743 5741 5739 5735 5731 5729 5727 5725 5724 5723 5723 5723 5723 5723 5723 5722 5722 5722 5722 5722 5722 5723 5724 5725 5725 5726 5726 5727 5728 5728 5728 5729 5730 5730 5731 5732 5733 5735 5736 5736 5737 5738 5739 5741 5742
5793 5792 5791 5790 5789 5788 5787 5786 5785 5784 5783 5782 5781 5780 5779 5777 5776 5775 5774 5773 5772 5771 5769 5768 5767 5766 5765 5764 5763 5763 5761 5760 5759 5757 5756 5754 5753 5751 5749 5747 5745 5744 5742 5740 5738 5737 5733 5729 5726 5724 5722 5720 5719 5719 5719 5719 5719 5719 5719 5719 5719 5719 5719 5719 5719 5719 5719 5720 5722 5723 5723 5723 5724 5725 5725 5726 5726 5727 5729 5730 5731 5732 5733 5734 5735 5736 5737 5738
5793 5792 5791 5790 5789 5788 5787 5786 5785 5784 5783 5782 5781 5781 5780 5779 5777 5777 5776 5775 5774 5772 5771 5770 5769 5768 5767 5766 5765 5764 5762 5761 5760 5758 5756 5755 5752 5750 5748 5746 5744 5741 5739 5736 5734 5733 5730 5727 5723 5721 5719 5717 5716 5715 5715 5715 5714 5715 5715 5715 5715 5716 5716 5716 5716 5715 5715 5716 5717 5718 5719 5719 5720 5721 5722 5722 5722 5723 5725 5726 5728 5728 5729 5730 5731 5731 5732 5733
5793 5792 5791 5790 5789 5788 5787 5786 5785 5784 5783 5783 5782 5781 5780 5779 5778 5778 5777 5776 5774 5773 5772 5771 5770 5769 5768 5767 5766 5765 5764 5762 5760 5759 5757 5755 5753 5750 5747 5745 5742 5740 5737 5733 5731 5729 5728 5724 5720 5718 5715 5713 5712 5711 5711 5711 5711 5711 5712 5712 5712 5713 5713 5713 5713 5712 5712 5713 5713 5714 5714 5715 5716 5718 5718 5719 5719 5720 5721 5722 5723 5724 5724 5725 5726 5727 5727 5728
5793 5792 5791 5790 5789 5788 5787 5786 5785 5784 5784 5783 5782 5781 5780 5779 5779 5778 5777 5776 5775 5774 5773 5772 5771 5770 5769 5768 5767 5765 5764 5763 5761 5759 5757 5755 5752 5749 5746 5744 5741 5738 5735 5731 5728 5725 5724 5722 5718 5714 5712 5710 5709 5708 5708 5707 5707 5707 5708 5709 5709 5710 5710 5710 5710 5710 5710 5710 5710 5711 5711 5711 5713 5714 5714 5715 5716 5716 5717 5718 5719 5720 5720 5721 5722 5722 5723 5723
5792 5791 5790 5790 5789 5788 5787 5786 5785 5784 5783 5782 5781 5780 5780 5779 5779 5778 5777 5776 5775 5774 5773 5772 5771 5770 5769 5768 5767 5765 5764 5762 5761 5759 5757 5754 5752 5749 5745 5742 5739 5736 5733 5729 5725 5721 5719 5718 5715 5711 5709 5708 5706 5705 5705 5704 5704 5704 5705 5706 5706 5706 5707 5707 5707 5707 5707 5707 5708 5708 5708 5709 5709 5710 5711 5712 5712 5713 5713 5714 5714 5715 5716 5717 5717 5718 5719 5719
5792 5791 5790 5789 5789 5788 5787 5785 5784 5783 5782 5782 5781 5780 5780 5780 5779 5778 5777 5776 5775 5774 5773 5772 5770 5769 5768 5767 5766 5765 5763 5762 5761 5759 5756 5754 5751 5748 5745 5741 5738 5734 5731 5727 5724 5719 5716 5715 5712 5708 5706 5706 5705 5703 5702 5702 5702 5701 5702 5703 5704 5704 5704 5704 5705 5705 5705 5705 5705 5705 5706 5707 5707 5707 5708 5709 5710 5710 5711 5711 5710 5711 5713 5713 5714 5714 5715 5716
5791 5791 5790 5789 5788 5787 5787 5786 5784 5783 5782 5782 5781 5781 5780 5779 5779 5778 5777 5776 5775 5774 5773 5772 5771 5769 5768 5766 5765 5765 5763 5762 5760 5758 5756 5754 5751 5748 5744 5741 5736 5733 5729 5726 5723 5719 5715 5712 5710 5708 5705 5704 5703 5702 5701 5701 5701 5700 5700 5700 5701 5701 5702 5702 5702 5702 5702 5702 5703 5703 5704 5705 5705 5705 5705 5706 5707 5708 5708 5708 5708 5709 5710 5711 5711 5711 5712 5712
5791 5790 5790 5789 5788 5787 5786 5786 5785 5784 5783 5782 5781 5781 5780 5779 5779 5778 5777 5776 5775 5774 5772 5771 5770 5769 5768 5766 5765 5764 5762 5761 5760 5758 5756 5754 5750 5747 5744 5740 5736 5732 5729 5725 5721 5718 5715 5711 5709 5708 5706 5704 5702 5701 5700 5700 5700 5700 5700 5699 5699 5699 5699 5699 5700 5700 5700 5700 5700 5700 5701 5702 5702 5702 5703 5703 5704 5705 5706 5706 5706 5707 5707 5708 5708 5708 5708 5708
5791 5790 5789 5789 5787 5787 5786 5785 5785 5784 5783 5782 5782 5781 5780 5779 5778 5777 5776 5776 5775 5774 5773 5771 5770 5769 5767 5766 5764 5763 5762 5760 5759 5758 5756 5753 5750 5747 5744 5740 5736 5733 5729 5725 5721 5718 5715 5712 5708 5707 5705 5704 5703 5701 5700 5699 5699 5699 5699 5699 5698 5698 5698 5698 5698 5698 5698 5698 5698 5698 5699 5699 5700 5700 5700 5701 5701 5702 5703 5704 5704 5705 5705 5705 5706 5706 5706 5705
5790 5790 5789 5788 5787 5786 5786 5785 5785 5784 5783 5782 5781 5781 5780 5779 5778 5777 5776 5775 5775 5774 5773 5772 5770 5769 5767 5765 5764 5763 5762 5760 5758 5757 5755 5752 5750 5747 5744 5740 5736 5733 5729 5725 5721 5717 5714 5712 5709 5706 5704 5703 5703 5701 5700 5700 5699 5699 5698 5698 5698 5698 5698 5698 5698 5698 5697 5696 5696 5696 5696 5697 5697 5698 5698 5698 5699 5699 5700 5701 5702 5702 5702 5702 5703 5703 5703 5703
5790 5789 5789 5788 5787 5786 5785 5785 5784 5783 5782 5781 5781 5780 5779 5778 5778 5777 5776 5775 5774 5773 5772 5771 5770 5769 5767 5766 5764 5762 5761 5759 5757 5756 5754 5752 5749 5747 5744 5740 5736 5733 5729 5724 5720 5717 5714 5711 5710 5708 5705 5703 5702 5701 5700 5699 5699 5698 5698 5698 5697 5697 5697 5697 5697 5696 5696 5695 5695 5694 5694 5694 5695 5695 5696 5696 5696 5696 5697 5697 5698 5698 5699 5699 5699 5700 5700 5700
5789 5789 5788 5787 5787 5786 5785 5784 5784 5783 5782 5781 5780 5780 5779 5778 5777 5776 5775 5775 5774 5773 5772 5771 5769 5768 5767 5766 5764 5762 5760 5759 5757 5755 5753 5751 5749 5746 5743 5740 5737 5733 5729 5725 5721 5717 5713 5711 5710 5708 5707 5705 5703 5702 5701 5699 5698 5698 5697 5697 5697 5696 5696 5696 5696 5695 5695 5694 5693 5693 5693 5693 5693 5693 5693 5693 5694 5694 5694 5694 5694 5695 5695 5695 5696 5697 5697 5697
5789 5788 5788 5787 5787 5786 5785 5784 5783 5783 5782 5781 5780 5779 5779 5778 5777 5776 5775 5775 5774 5773 5771 5770 5769 5767 5766 5765 5764 5762 5760 5758 5756 5754 5752 5750 5748 5746 5743 5740 5736 5733 5729 5725 5721 5717 5714 5711 5709 5707 5706 5705 5704 5702 5701 5700 5699 5698 5697 5696 5696 5695 5695 5695 5694 5694 5693 5693 5692 5691 5691 5691 5691 5691 5691 5691 5691 5691 5691 5690 5690 5691 5691 5691 5692 5692 5693 5693
5788 5787 5787 5787 5786 5785 5785 5784 5783 5783 5782 5781 5780 5779 5778 5778 5777 5776 5775 5774 5773 5772 5771 5769 5768 5767 5765 5763 5762 5760 5758 5757 5755 5753 5752 5749 5747 5745 5742 5739 5736 5733 5729 5726 5722 5718 5714 5711 5708 5706 5705 5704 5703 5702 5701 5700 5699 5698 5697 5696 5695 5694 5694 5693 5693 5692 5692 5691 5691 5690 5690 5690 5689 5689 5689 5689 5688 5688 5688 5687 5687 5687 5687 5687 5687 5687 5688 5689
5786 5786 5786 5786 5785 5785 5784 5783 5783 5782 5782 5781 5780 5779 5778 5777 5776 5775 5775 5774 5773 5771 5770 5769 5767 5766 5764 5762 5760 5759 5757 5756 5754 5753 5751 5749 5747 5744 5742 5739 5736 5733 5729 5726 5722 5719 5715 5712 5709 5706 5705 5704 5702 5701 5700 5699 5699 5698 5697 5696 5695 5694 5694 5693 5692 5692 5691 5690 5690 5689 5689 5688 5688 5688 5687 5687 5686 5686 5685 5685 5685 5684 5684 5684 5683 5683 5683 5684
5785 5785 5785 5785 5784 5784 5783 5783 5782 5782 5781 5780 5779 5778 5778 5777 5776 5775 5774 5773 5772 5771 5770 5768 5766 5765 5763 5761 5760 5758 5756 5755 5753 5752 5750 5748 5746 5743 5741 5738 5736 5733 5729 5726 5722 5719 5716 5713 5709 5707 5705 5703 5702 5700 5699 5698 5697 5697 5696 5696 5695 5694 5693 5692 5692 5691 5690 5690 5689 5688 5687 5687 5686 5686 5685 5685 5684 5684 5683 5683 5682 5682 5681 5680 5680 5680 5680 5680
5784 5784 5784 5784 5783 5783 5783 5782 5782 5781 5780 5779 5778 5777 5776 5776 5775 5774 5773 5772 5771 5770 5768 5767 5765 5764 5762 5760 5759 5757 5756 5754 5752 5751 5749 5746 5744 5742 5740 5738 5735 5732 5729 5726 5723 5720 5716 5713 5710 5707 5705 5703 5701 5700 5699 5697 5696 5696 5695 5694 5694 5693 5692 5692 5691 5690 5690 5689 5688 5687 5686 5685 5685 5684 5684 5683 5682 5682 5681 5680 5680 5679 5678 5677 5677 5677 5677 5677
5783 5783 5783 5782 5782 5782 5782 5781 5781 5780 5779 5778 5777 5777 5776 5775 5774 5773 5772 5772 5770 5769 5767 5766 5764 5763 5761 5759 5758 5756 5755 5753 5751 5749 5747 5745 5743 5741 5739 5737 5734 5732 5729 5726 5723 5720 5717 5714 5711 5708 5705 5703 5701 5700 5698 5697 5696 5695 5694 5693 5692 5692 5691 5690 5690 5690 5689 5689 5688 5687 5686 5685 5684 5683 5682 5681 5680 5680 5679 5678 5678 5677 5676 5675 5674 5674 5674 5674
5782 5781 5781 5781 5781 5780 5780 5780 5779 5778 5778 5777 5777 5776 5775 5774 5774 5773 5772 5771 5770 5768 5767 5765 5763 5761 5760 5758 5756 5754 5752 5751 5748 5746 5745 5743 5741 5740 5738 5736 5733 5731 5729 5726 5723 5720 5717 5714 5711 5708 5705 5703 5702 5700 5698 5697 5695 5694 5693 5692 5691 5690 5689 5689 5689 5689 5689 5688 5687 5686 5685 5684 5683 5682 5680 5679 5678 5678 5677 5676 5676 5675 5674 5673 5672 5671 5671 5671